Location: Cheyres
(46.8153°N, 6.7877°E)
Time: 09:31:35
(UTC+00:00)

Cosmos 990 Rocket - Pass Details

Date: 20 September 2021
Orbit: 746 x 769 km, 74.0° (Epoch: 21 October)

Event Time Altitude Azimuth Distance (km) Brightness Sun altitude
Exits shadow 20:57:45 15° 26° (NNE) 1,985 6.3 -32.4°
Drops below altitude 10° 20:58:32 10° 25° (NNE) 2,290 6.6 -32.5°
Sets 21:00:56 0° 24° (NNE) 3,223 7.5 -32.8°
